| time (UTC) | temp C | wind direction | speed KPH | gust KPH | rain 1hr cm | rain 24hr cm | rain mn cm | humidity % | barometer mb |
| 20260901143546 | 19 | 146 | 0.0 | 0.0 | 1.55 | 0.89 | 0.89 | 99 | 1014.4 |
| 20260901143038 | 19 | 185 | 1.6 | 1.6 | 1.68 | 0.81 | 0.81 | 99 | 1014.9 |
| 20260901142538 | 19 | 188 | 1.6 | 1.6 | 1.19 | 0.64 | 0.64 | 99 | 1015.0 |
| 20260901142033 | 19 | 177 | 0.0 | 0.0 | 0.89 | 0.53 | 0.53 | 99 | 1015.2 |
| 20260901141533 | 19 | 177 | 0.0 | 1.6 | 0.61 | 0.43 | 0.43 | 99 | 1015.0 |
| 20260901141027 | 19 | 179 | 0.0 | 1.6 | 0.48 | 0.38 | 0.38 | 99 | 1014.7 |
| 20260901140526 | 19 | 202 | 1.6 | 1.6 | 0.18 | 0.33 | 0.33 | 99 | 1014.6 |
| 20260901140021 | 19 | 142 | 0.0 | 0.0 | 0.13 | 0.30 | 0.30 | 99 | 1014.8 |
| 20260901135520 | 19 | 141 | 1.6 | 1.6 | 0.13 | 0.30 | 0.30 | 99 | 1014.7 |
| 20260901135016 | 19 | 181 | 0.0 | 0.0 | 0.30 | 0.28 | 0.28 | 99 | 1014.7 |
| 20260901134511 | 19 | 202 | 1.6 | 1.6 | 0.89 | 0.28 | 0.28 | 99 | 1014.6 |
| 20260901134006 | 20 | 177 | 0.0 | 0.0 | 0.61 | 0.23 | 0.23 | 99 | 1014.3 |
| 20260901133504 | 19 | 196 | 1.6 | 1.6 | 0.30 | 0.13 | 0.13 | 99 | 1014.7 |
| 20260901132958 | 20 | 155 | 0.0 | 0.0 | 0.30 | 0.13 | 0.13 | 99 | 1014.5 |
| 20260901132457 | 20 | 155 | 0.0 | 0.0 | 0.18 | 0.08 | 0.08 | 99 | 1014.3 |
| 20260901131956 | 20 | 155 | 0.0 | 0.0 | 0.18 | 0.08 | 0.08 | 99 | 1014.4 |
| 20260901131451 | 20 | 155 | 0.0 | 0.0 | 0.00 | 0.05 | 0.05 | 99 | 1014.2 |
| 20260901130947 | 20 | 155 | 0.0 | 0.0 | 0.00 | 0.05 | 0.05 | 99 | 1014.5 |
| 20260901130441 | 20 | 155 | 0.0 | 0.0 | 0.00 | 0.05 | 0.05 | 99 | 1014.4 |
| 20260901125938 | 20 | 155 | 0.0 | 1.6 | 0.00 | 0.05 | 0.05 | 99 | 1014.5 |
| 20260901125432 | 20 | 155 | 0.0 | 0.0 | 0.00 | 0.05 | 0.05 | 99 | 1014.5 |
| 20260901124927 | 20 | 155 | 0.0 | 0.0 | 0.00 | 0.05 | 0.05 | 99 | 1014.3 |
| 20260901124422 | 20 | 155 | 0.0 | 0.0 | 0.00 | 0.05 | 0.05 | 99 | 1014.3 |
| 20260901123917 | 20 | 155 | 0.0 | 1.6 | 0.00 | 0.05 | 0.05 | 99 | 1014.3 |
| 20260901123412 | 20 | 155 | 1.6 | 1.6 | 0.00 | 0.05 | 0.05 | 99 | 1014.5 |
| 20260901122910 | 20 | 155 | 0.0 | 0.0 | 0.00 | 0.05 | 0.05 | 99 | 1014.5 |
| 20260901122405 | 19 | 155 | 0.0 | 0.0 | 0.00 | 0.05 | 0.05 | 99 | 1014.4 |
| 20260901121904 | 19 | 155 | 0.0 | 0.0 | 0.00 | 0.05 | 0.05 | 99 | 1014.3 |
| 20260901121359 | 19 | 155 | 0.0 | 0.0 | 0.00 | 0.05 | 0.05 | 99 | 1014.4 |
| 20260901120855 | 19 | 155 | 0.0 | 0.0 | 0.00 | 0.05 | 0.05 | 99 | 1014.4 |
| 20260901120349 | 19 | 155 | 0.0 | 0.0 | 0.00 | 0.05 | 0.05 | 99 | 1014.3 |
| 20260901115845 | 19 | 155 | 0.0 | 0.0 | 0.00 | 0.05 | 0.05 | 99 | 1014.3 |
| 20260901115339 | 19 | 155 | 0.0 | 0.0 | 0.00 | 0.05 | 0.05 | 99 | 1014.5 |
| 20260901114837 | 18 | 155 | 0.0 | 1.6 | 0.00 | 0.05 | 0.05 | 99 | 1014.2 |
| 20260901114337 | 18 | 155 | 1.6 | 1.6 | 0.00 | 0.05 | 0.05 | 99 | 1014.2 |
| 20260901113836 | 18 | 155 | 0.0 | 0.0 | 0.00 | 0.05 | 0.05 | 99 | 1014.1 |
| 20260901113335 | 18 | 155 | 0.0 | 0.0 | 0.00 | 0.05 | 0.05 | 99 | 1014.1 |
| 20260901112830 | 18 | 155 | 0.0 | 0.0 | 0.00 | 0.05 | 0.05 | 99 | 1014.2 |
| 20260901112330 | 18 | 155 | 0.0 | 0.0 | 0.00 | 0.05 | 0.05 | 99 | 1014.1 |
| 20260901111825 | 18 | 155 | 0.0 | 0.0 | 0.00 | 0.05 | 0.05 | 99 | 1014.2 |
| 20260901111323 | 18 | 155 | 0.0 | 1.6 | 0.00 | 0.05 | 0.05 | 99 | 1014.2 |
| 20260901110822 | 18 | 154 | 0.0 | 0.0 | 0.00 | 0.05 | 0.05 | 99 | 1014.1 |
| 20260901110318 | 18 | 154 | 0.0 | 0.0 | 0.00 | 0.05 | 0.05 | 99 | 1014.1 |
| 20260901105814 | 18 | 154 | 0.0 | 0.0 | 0.00 | 0.05 | 0.05 | 99 | 1014.2 |
| 20260901105308 | 18 | 154 | 0.0 | 0.0 | 0.00 | 0.05 | 0.05 | 99 | 1014.3 |
| 20260901104804 | 18 | 154 | 0.0 | 0.0 | 0.00 | 0.05 | 0.05 | 99 | 1014.4 |
| 20260901104259 | 18 | 154 | 0.0 | 0.0 | 0.00 | 0.05 | 0.05 | 99 | 1014.2 |
| 20260901103755 | 18 | 154 | 0.0 | 0.0 | 0.00 | 0.05 | 0.05 | 99 | 1014.2 |
| 20260901103249 | 18 | 154 | 0.0 | 0.0 | 0.00 | 0.05 | 0.05 | 99 | 1014.2 |
| 20260901102744 | 18 | 154 | 0.0 | 0.0 | 0.18 | 0.05 | 0.05 | 99 | 1014.2 |
| 20260901102239 | 18 | 154 | 0.0 | 0.0 | 0.18 | 0.05 | 0.05 | 99 | 1014.4 |
| 20260901101735 | 18 | 154 | 0.0 | 0.0 | 0.00 | 0.03 | 0.03 | 99 | 1014.4 |
| 20260901101234 | 18 | 154 | 0.0 | 0.0 | 0.00 | 0.03 | 0.03 | 99 | 1014.2 |
| 20260901100734 | 18 | 154 | 0.0 | 0.0 | 0.00 | 0.03 | 0.03 | 99 | 1014.5 |
| 20260901100229 | 18 | 154 | 0.0 | 0.0 | 0.00 | 0.03 | 0.03 | 99 | 1014.4 |
| 20260901095727 | 18 | 154 | 0.0 | 0.0 | 0.00 | 0.03 | 0.03 | 99 | 1014.7 |
| 20260901095224 | 18 | 154 | 0.0 | 0.0 | 0.00 | 0.03 | 0.03 | 99 | 1014.5 |
| 20260901094719 | 18 | 154 | 0.0 | 0.0 | 0.00 | 0.03 | 0.03 | 99 | 1014.5 |
| 20260901094214 | 18 | 154 | 0.0 | 0.0 | 0.00 | 0.03 | 0.03 | 99 | 1014.6 |
| 20260901093709 | 18 | 154 | 0.0 | 0.0 | 0.00 | 0.03 | 0.03 | 99 | 1014.4 |
| 20260901093208 | 18 | 154 | 0.0 | 0.0 | 0.00 | 0.03 | 0.03 | 99 | 1014.4 |
| 20260901092704 | 18 | 154 | 0.0 | 0.0 | 0.00 | 0.03 | 0.03 | 99 | 1014.5 |
| 20260901092200 | 18 | 154 | 0.0 | 0.0 | 0.00 | 0.03 | 0.03 | 99 | 1014.3 |
| 20260901091655 | 18 | 154 | 0.0 | 0.0 | 0.00 | 0.03 | 0.03 | 99 | 1014.4 |
| 20260901091150 | 18 | 154 | 0.0 | 0.0 | 0.00 | 0.03 | 0.03 | 99 | 1014.3 |
| 20260901090645 | 18 | 154 | 0.0 | 0.0 | 0.00 | 0.03 | 0.03 | 99 | 1014.4 |
| 20260901090140 | 18 | 154 | 0.0 | 0.0 | 0.00 | 0.03 | 0.03 | 99 | 1014.4 |
| 20260901085636 | 18 | 154 | 0.0 | 0.0 | 0.00 | 0.03 | 0.03 | 99 | 1014.2 |
| 20260901085131 | 18 | 154 | 0.0 | 0.0 | 0.00 | 0.03 | 0.03 | 99 | 1014.4 |
| 20260901084628 | 18 | 154 | 0.0 | 0.0 | 0.00 | 0.03 | 0.03 | 99 | 1014.6 |
| 20260901084124 | 18 | 154 | 0.0 | 0.0 | 0.00 | 0.03 | 0.03 | 99 | 1014.4 |
| 20260901083624 | 18 | 154 | 0.0 | 0.0 | 0.00 | 0.03 | 0.03 | 99 | 1014.5 |
| 20260901083122 | 18 | 154 | 0.0 | 0.0 | 0.00 | 0.03 | 0.03 | 99 | 1014.6 |
| 20260901082617 | 18 | 154 | 0.0 | 0.0 | 0.00 | 0.03 | 0.03 | 99 | 1014.5 |
| 20260901082112 | 18 | 154 | 0.0 | 0.0 | 0.00 | 0.03 | 0.03 | 99 | 1014.5 |
| 20260901081608 | 18 | 154 | 0.0 | 0.0 | 0.00 | 0.03 | 0.03 | 99 | 1014.7 |
| 20260901081108 | 18 | 154 | 0.0 | 0.0 | 0.00 | 0.03 | 0.03 | 99 | 1014.8 |
| 20260901080602 | 18 | 154 | 0.0 | 0.0 | 0.00 | 0.03 | 0.03 | 99 | 1014.8 |
| 20260901080101 | 18 | 155 | 0.0 | 0.0 | 0.00 | 0.03 | 0.03 | 99 | 1014.8 |
| 20260901075556 | 18 | 155 | 0.0 | 0.0 | 0.00 | 0.03 | 0.03 | 99 | 1014.7 |
| 20260901075056 | 18 | 155 | 0.0 | 0.0 | 0.00 | 0.03 | 0.03 | 99 | 1014.8 |
| 20260901074556 | 18 | 155 | 0.0 | 0.0 | 0.00 | 0.03 | 0.03 | 99 | 1014.9 |
| 20260901074051 | 18 | 155 | 0.0 | 0.0 | 0.00 | 0.03 | 0.03 | 99 | 1014.9 |
| 20260901073548 | 18 | 155 | 0.0 | 0.0 | 0.00 | 0.03 | 0.03 | 99 | 1014.8 |
| 20260901073048 | 18 | 155 | 0.0 | 0.0 | 0.00 | 0.03 | 0.03 | 99 | 1014.8 |
| 20260901072543 | 18 | 155 | 0.0 | 0.0 | 0.00 | 0.03 | 0.03 | 99 | 1014.9 |
| 20260901072037 | 18 | 155 | 0.0 | 0.0 | 0.00 | 0.03 | 0.03 | 99 | 1014.9 |
| 20260901071532 | 18 | 155 | 0.0 | 0.0 | 0.00 | 0.03 | 0.03 | 99 | 1014.9 |
| 20260901071030 | 18 | 155 | 0.0 | 0.0 | 0.00 | 0.03 | 0.03 | 99 | 1015.1 |
| 20260901070526 | 18 | 155 | 0.0 | 0.0 | 0.00 | 0.03 | 0.03 | 99 | 1015.2 |
| 20260901070021 | 18 | 155 | 0.0 | 0.0 | 0.00 | 0.03 | 0.03 | 99 | 1014.9 |
| 20260901065515 | 18 | 155 | 0.0 | 0.0 | 0.00 | 0.03 | 0.03 | 99 | 1015.0 |
| 20260901065010 | 18 | 155 | 0.0 | 0.0 | 0.00 | 0.03 | 0.03 | 99 | 1015.3 |
| 20260901064507 | 18 | 155 | 0.0 | 0.0 | 0.00 | 0.03 | 0.03 | 99 | 1015.1 |
| 20260901064004 | 18 | 155 | 0.0 | 0.0 | 0.00 | 0.03 | 0.03 | 99 | 1015.1 |
| 20260901063500 | 18 | 155 | 0.0 | 0.0 | 0.00 | 0.03 | 0.03 | 99 | 1015.0 |
| 20260901062955 | 18 | 155 | 0.0 | 0.0 | 0.00 | 0.03 | 0.03 | 99 | 1015.2 |
| 20260901062451 | 18 | 155 | 0.0 | 0.0 | 0.00 | 0.03 | 0.03 | 99 | 1015.2 |
| 20260901061947 | 18 | 155 | 0.0 | 0.0 | 0.00 | 0.03 | 0.03 | 99 | 1015.4 |
| 20260901061443 | 18 | 155 | 0.0 | 0.0 | 0.00 | 0.03 | 0.03 | 99 | 1015.4 |
| 20260901060942 | 18 | 155 | 0.0 | 0.0 | 0.00 | 0.03 | 0.03 | 99 | 1015.3 |
| 20260901060437 | 18 | 155 | 0.0 | 0.0 | 0.00 | 0.03 | 0.03 | 99 | 1015.5 |
| 20260901055932 | 18 | 155 | 0.0 | 0.0 | 0.00 | 0.03 | 0.03 | 99 | 1015.2 |
| 20260901055429 | 18 | 155 | 0.0 | 0.0 | 0.00 | 0.03 | 0.03 | 99 | 1015.3 |
| 20260901054925 | 18 | 155 | 0.0 | 0.0 | 0.00 | 0.03 | 0.03 | 99 | 1015.2 |
| 20260901054422 | 18 | 155 | 0.0 | 0.0 | 0.00 | 0.03 | 0.03 | 99 | 1015.3 |
| 20260901053918 | 18 | 155 | 0.0 | 0.0 | 0.00 | 0.03 | 0.03 | 99 | 1015.3 |
| 20260901053413 | 18 | 155 | 0.0 | 0.0 | 0.00 | 0.03 | 0.03 | 99 | 1015.4 |
| 20260901052908 | 18 | 155 | 0.0 | 0.0 | 0.00 | 0.03 | 0.03 | 99 | 1015.6 |
| 20260901052403 | 18 | 155 | 0.0 | 0.0 | 0.00 | 0.03 | 0.03 | 99 | 1015.8 |
| 20260901051902 | 18 | 155 | 0.0 | 0.0 | 0.00 | 0.03 | 0.03 | 99 | 1015.8 |
| 20260901051357 | 18 | 155 | 0.0 | 0.0 | 0.00 | 0.03 | 0.03 | 99 | 1015.6 |
| 20260901050852 | 18 | 155 | 0.0 | 0.0 | 0.00 | 0.03 | 0.03 | 99 | 1015.8 |
| 20260901050348 | 18 | 155 | 0.0 | 0.0 | 0.00 | 0.03 | 0.03 | 99 | 1015.6 |
| 20260901045842 | 18 | 155 | 0.0 | 0.0 | 0.00 | 0.03 | 0.03 | 99 | 1015.6 |
| 20260901045342 | 18 | 155 | 0.0 | 0.0 | 0.00 | 0.03 | 0.03 | 99 | 1015.5 |
| 20260901044838 | 18 | 155 | 0.0 | 0.0 | 0.00 | 0.03 | 0.03 | 99 | 1015.7 |
| 20260901044334 | 18 | 155 | 0.0 | 0.0 | 0.00 | 0.03 | 0.03 | 99 | 1015.5 |
| 20260901043829 | 18 | 155 | 0.0 | 0.0 | 0.00 | 0.03 | 0.03 | 99 | 1015.6 |
| 20260901043325 | 18 | 155 | 0.0 | 0.0 | 0.00 | 0.03 | 0.03 | 99 | 1015.6 |
| 20260901042824 | 18 | 155 | 0.0 | 0.0 | 0.00 | 0.03 | 0.03 | 99 | 1015.7 |
| 20260901042319 | 18 | 155 | 0.0 | 0.0 | 0.00 | 0.03 | 0.03 | 99 | 1016.0 |
| 20260901041815 | 18 | 155 | 0.0 | 0.0 | 0.00 | 0.03 | 0.03 | 99 | 1016.2 |
| 20260901041310 | 18 | 155 | 0.0 | 0.0 | 0.13 | 0.03 | 0.03 | 99 | 1016.0 |
| 20260901040804 | 18 | 155 | 0.0 | 0.0 | 0.13 | 0.03 | 0.03 | 99 | 1015.8 |
| 20260901040303 | 18 | 155 | 0.0 | 0.0 | 0.13 | 0.03 | 0.03 | 99 | 1016.1 |
| 20260901035803 | 18 | 155 | 0.0 | 1.6 | 0.00 | 0.28 | 0.28 | 99 | 1016.0 |
| 20260901035305 | 18 | 155 | 0.0 | 0.0 | 0.00 | 0.28 | 0.28 | 99 | 1016.0 |
| 20260901034800 | 18 | 155 | 0.0 | 0.0 | 0.00 | 0.28 | 0.28 | 99 | 1015.7 |
| 20260901034255 | 18 | 155 | 0.0 | 0.0 | 0.00 | 0.28 | 0.28 | 99 | 1016.2 |
| 20260901033750 | 18 | 155 | 0.0 | 0.0 | 0.00 | 0.28 | 0.28 | 99 | 1016.1 |
| 20260901033249 | 18 | 155 | 0.0 | 0.0 | 0.00 | 0.28 | 0.28 | 99 | 1016.0 |
| 20260901032748 | 18 | 155 | 0.0 | 1.6 | 0.00 | 0.28 | 0.28 | 99 | 1016.1 |
| 20260901032242 | 18 | 155 | 0.0 | 1.6 | 0.00 | 0.28 | 0.28 | 99 | 1016.0 |
| 20260901031737 | 18 | 162 | 0.0 | 1.6 | 0.00 | 0.28 | 0.28 | 99 | 1015.8 |
| 20260901031233 | 18 | 167 | 0.0 | 0.0 | 0.00 | 0.28 | 0.28 | 99 | 1016.0 |
| 20260901030733 | 18 | 182 | 0.0 | 0.0 | 0.00 | 0.28 | 0.28 | 99 | 1016.0 |
| 20260901030229 | 18 | 170 | 1.6 | 1.6 | 0.00 | 0.28 | 0.28 | 99 | 1016.1 |
| 20260901025728 | 18 | 147 | 1.6 | 1.6 | 0.00 | 0.28 | 0.28 | 99 | 1016.0 |
| 20260901025223 | 18 | 147 | 0.0 | 0.0 | 0.18 | 0.28 | 0.28 | 99 | 1016.0 |
| 20260901024717 | 18 | 147 | 0.0 | 0.0 | 0.18 | 0.28 | 0.28 | 99 | 1016.1 |
| 20260901024217 | 18 | 175 | 0.0 | 0.0 | 0.00 | 0.25 | 0.25 | 99 | 1016.2 |
| 20260901023715 | 18 | 175 | 0.0 | 0.0 | 0.13 | 0.25 | 0.25 | 99 | 1016.2 |
| 20260901023210 | 18 | 175 | 0.0 | 0.0 | 0.13 | 0.25 | 0.25 | 99 | 1016.3 |
| 20260901022706 | 18 | 172 | 0.0 | 0.0 | 0.00 | 0.23 | 0.23 | 99 | 1016.5 |
| 20260901022201 | 18 | 171 | 0.0 | 0.0 | 0.00 | 0.23 | 0.23 | 99 | 1016.4 |
| 20260901021656 | 18 | 171 | 0.0 | 0.0 | 0.00 | 0.23 | 0.23 | 99 | 1016.5 |
| 20260901021151 | 18 | 186 | 1.6 | 3.2 | 0.00 | 0.23 | 0.23 | 99 | 1016.5 |
| 20260901020647 | 18 | 177 | 0.0 | 1.6 | 0.00 | 0.23 | 0.23 | 99 | 1016.5 |
| 20260901020142 | 18 | 177 | 0.0 | 0.0 | 0.00 | 0.23 | 0.23 | 99 | 1016.4 |
| 20260901015637 | 18 | 155 | 0.0 | 0.0 | 0.00 | 0.23 | 0.23 | 99 | 1016.6 |
| 20260901015137 | 18 | 155 | 0.0 | 0.0 | 0.00 | 0.23 | 0.23 | 99 | 1016.6 |
| 20260901014632 | 18 | 155 | 0.0 | 0.0 | 0.00 | 0.23 | 0.23 | 99 | 1016.5 |
| 20260901014128 | 18 | 155 | 0.0 | 0.0 | 0.00 | 0.23 | 0.23 | 99 | 1016.8 |
| 20260901013624 | 18 | 166 | 0.0 | 0.0 | 0.00 | 0.23 | 0.23 | 99 | 1016.8 |
| 20260901013119 | 18 | 166 | 0.0 | 0.0 | 0.00 | 0.23 | 0.23 | 99 | 1016.7 |
| 20260901012619 | 18 | 166 | 0.0 | 0.0 | 0.00 | 0.23 | 0.23 | 99 | 1016.6 |
| 20260901012114 | 18 | 166 | 0.0 | 0.0 | 0.00 | 0.23 | 0.23 | 99 | 1016.7 |
| 20260901011611 | 18 | 155 | 0.0 | 0.0 | 0.00 | 0.23 | 0.23 | 99 | 1016.5 |
| 20260901011109 | 18 | 155 | 0.0 | 0.0 | 0.00 | 0.23 | 0.23 | 99 | 1016.7 |
| 20260901010604 | 18 | 155 | 0.0 | 0.0 | 0.00 | 0.23 | 0.23 | 99 | 1016.7 |
| 20260901005558 | 18 | 155 | 0.0 | 0.0 | 0.00 | 0.23 | 0.23 | 99 | 1016.5 |
| 20260901005053 | 18 | 155 | 0.0 | 0.0 | 0.00 | 0.23 | 0.23 | 99 | 1016.6 |
| 20260901004552 | 18 | 155 | 0.0 | 0.0 | 0.00 | 0.23 | 0.23 | 99 | 1016.6 |
| 20260901004047 | 18 | 155 | 0.0 | 0.0 | 0.00 | 0.23 | 0.23 | 99 | 1016.6 |
| 20260901003542 | 18 | 155 | 0.0 | 0.0 | 0.00 | 0.23 | 0.23 | 99 | 1016.8 |
| 20260901003040 | 18 | 155 | 0.0 | 0.0 | 0.00 | 0.23 | 0.23 | 99 | 1016.7 |
| 20260901002540 | 18 | 154 | 0.0 | 0.0 | 0.00 | 0.23 | 0.23 | 99 | 1016.6 |
| 20260901002035 | 18 | 154 | 0.0 | 0.0 | 0.00 | 0.23 | 0.23 | 99 | 1016.6 |
| 20260901001530 | 18 | 154 | 0.0 | 0.0 | 0.00 | 0.23 | 0.23 | 99 | 1016.6 |
| 20260901001025 | 18 | 154 | 0.0 | 0.0 | 0.00 | 0.23 | 0.23 | 99 | 1016.6 |
| 20260901000526 | 18 | 154 | 1.6 | 1.6 | 0.00 | 0.23 | 0.23 | 99 | 1016.6 |
| 20260901000021 | 18 | 154 | 0.0 | 0.0 | 0.00 | 0.23 | 0.23 | 99 | 1016.6 |
| 20260831235515 | 18 | 154 | 0.0 | 0.0 | 0.18 | 0.23 | 0.23 | 99 | 1016.6 |
| 20260831235011 | 18 | 154 | 0.0 | 0.0 | 0.18 | 0.23 | 0.23 | 99 | 1016.6 |
| 20260831234505 | 18 | 154 | 0.0 | 0.0 | 0.18 | 0.23 | 0.23 | 99 | 1016.7 |
| 20260831234001 | 18 | 154 | 0.0 | 0.0 | 0.00 | 0.20 | 0.20 | 99 | 1016.6 |
| 20260831233455 | 18 | 154 | 0.0 | 0.0 | 0.00 | 0.20 | 0.20 | 99 | 1016.6 |
| 20260831232951 | 18 | 154 | 0.0 | 0.0 | 0.00 | 0.20 | 0.20 | 99 | 1016.7 |
| 20260831232447 | 18 | 154 | 0.0 | 0.0 | 0.00 | 0.20 | 0.20 | 99 | 1016.6 |
| 20260831231942 | 18 | 187 | 0.0 | 1.6 | 0.00 | 0.20 | 0.20 | 99 | 1017.0 |
| 20260831231439 | 18 | 187 | 0.0 | 0.0 | 0.13 | 0.20 | 0.20 | 99 | 1016.9 |
| 20260831230934 | 19 | 187 | 0.0 | 0.0 | 0.13 | 0.20 | 0.20 | 99 | 1016.7 |
| 20260831230429 | 19 | 191 | 0.0 | 0.0 | 0.00 | 0.18 | 0.18 | 99 | 1016.8 |
| 20260831225923 | 19 | 191 | 0.0 | 0.0 | 0.00 | 0.18 | 0.18 | 99 | 1017.0 |
| 20260831225419 | 19 | 191 | 0.0 | 0.0 | 0.00 | 0.18 | 0.18 | 99 | 1017.1 |
| 20260831224914 | 19 | 191 | 0.0 | 0.0 | 0.00 | 0.18 | 0.18 | 99 | 1017.2 |
| 20260831224413 | 19 | 191 | 0.0 | 0.0 | 0.00 | 0.18 | 0.18 | 99 | 1016.8 |
| 20260831223908 | 19 | 191 | 0.0 | 0.0 | 0.00 | 0.18 | 0.18 | 99 | 1016.9 |
| 20260831223404 | 19 | 191 | 0.0 | 0.0 | 0.00 | 0.18 | 0.18 | 99 | 1017.0 |
| 20260831222901 | 19 | 191 | 0.0 | 0.0 | 0.00 | 0.18 | 0.18 | 99 | 1016.9 |
| 20260831222356 | 19 | 191 | 0.0 | 0.0 | 0.00 | 0.18 | 0.18 | 99 | 1017.1 |
| 20260831221851 | 19 | 191 | 0.0 | 0.0 | 0.00 | 0.18 | 0.18 | 99 | 1017.1 |
| 20260831221347 | 19 | 191 | 0.0 | 0.0 | 0.00 | 0.18 | 0.18 | 99 | 1017.1 |
| 20260831220841 | 19 | 191 | 0.0 | 0.0 | 0.00 | 0.18 | 0.18 | 99 | 1017.1 |
| 20260831220337 | 19 | 191 | 0.0 | 0.0 | 0.00 | 0.18 | 0.18 | 99 | 1017.0 |
| 20260831215832 | 19 | 191 | 0.0 | 0.0 | 0.00 | 0.18 | 0.18 | 99 | 1017.2 |
| 20260831215328 | 19 | 191 | 0.0 | 0.0 | 0.00 | 0.18 | 0.18 | 99 | 1017.2 |
| 20260831214824 | 19 | 191 | 0.0 | 0.0 | 0.00 | 0.18 | 0.18 | 99 | 1017.1 |
| 20260831214322 | 20 | 191 | 0.0 | 0.0 | 0.00 | 0.18 | 0.18 | 99 | 1017.1 |
| 20260831213816 | 20 | 192 | 0.0 | 0.0 | 0.00 | 0.18 | 0.18 | 99 | 1017.1 |
| 20260831213313 | 20 | 149 | 0.0 | 1.6 | 0.00 | 0.18 | 0.18 | 99 | 1017.0 |
| 20260831212808 | 20 | 149 | 0.0 | 0.0 | 0.00 | 0.18 | 0.18 | 99 | 1017.2 |
| 20260831212306 | 20 | 166 | 0.0 | 1.6 | 0.00 | 0.18 | 0.18 | 99 | 1017.1 |
| 20260831211803 | 20 | 172 | 1.6 | 1.6 | 0.00 | 0.18 | 0.18 | 99 | 1017.2 |
| 20260831211258 | 20 | 138 | 1.6 | 1.6 | 0.00 | 0.18 | 0.18 | 99 | 1017.3 |
| 20260831210752 | 20 | 206 | 3.2 | 3.2 | 0.00 | 0.18 | 0.18 | 99 | 1017.2 |
| 20260831210249 | 20 | 215 | 0.0 | 0.0 | 0.00 | 0.18 | 0.18 | 99 | 1017.2 |
| 20260831205748 | 20 | 215 | 0.0 | 0.0 | 0.00 | 0.18 | 0.18 | 99 | 1017.1 |
| 20260831205244 | 20 | 215 | 0.0 | 0.0 | 0.00 | 0.18 | 0.18 | 99 | 1017.3 |
| 20260831204743 | 20 | 222 | 1.6 | 1.6 | 0.00 | 0.18 | 0.18 | 99 | 1017.2 |
| 20260831204243 | 20 | 222 | 1.6 | 1.6 | 0.00 | 0.18 | 0.18 | 99 | 1017.3 |
| 20260831203742 | 20 | 222 | 0.0 | 0.0 | 0.00 | 0.18 | 0.18 | 98 | 1017.4 |
| 20260831203237 | 20 | 222 | 0.0 | 1.6 | 0.00 | 0.18 | 0.18 | 98 | 1017.3 |
| 20260831202735 | 20 | 222 | 0.0 | 1.6 | 0.00 | 0.18 | 0.18 | 98 | 1017.6 |
| 20260831202231 | 20 | 216 | 1.6 | 1.6 | 0.00 | 0.18 | 0.18 | 98 | 1017.5 |
| 20260831201725 | 20 | 210 | 0.0 | 1.6 | 0.00 | 0.18 | 0.18 | 99 | 1017.6 |
| 20260831201224 | 20 | 210 | 0.0 | 0.0 | 0.00 | 0.18 | 0.18 | 99 | 1017.5 |
| 20260831200720 | 20 | 217 | 3.2 | 3.2 | 0.00 | 0.18 | 0.18 | 99 | 1017.5 |
| 20260831200220 | 20 | 196 | 0.0 | 0.0 | 0.00 | 0.18 | 0.18 | 99 | 1017.5 |
| 20260831195716 | 20 | 179 | 0.0 | 1.6 | 0.00 | 0.18 | 0.18 | 99 | 1017.5 |
| 20260831195211 | 20 | 179 | 0.0 | 0.0 | 0.00 | 0.18 | 0.18 | 99 | 1017.6 |
| 20260831194706 | 19 | 203 | 1.6 | 1.6 | 0.00 | 0.18 | 0.18 | 99 | 1017.7 |
| 20260831194202 | 20 | 115 | 0.0 | 0.0 | 0.00 | 0.18 | 0.18 | 99 | 1017.7 |
| 20260831193655 | 19 | 115 | 0.0 | 0.0 | 0.18 | 0.18 | 0.18 | 99 | 1017.9 |
| 20260831193151 | 19 | 115 | 0.0 | 0.0 | 0.18 | 0.18 | 0.18 | 99 | 1017.9 |
| 20260831192646 | 19 | 115 | 0.0 | 0.0 | 0.00 | 0.15 | 0.15 | 99 | 1018.0 |
| 20260831192141 | 19 | 116 | 0.0 | 0.0 | 0.00 | 0.15 | 0.15 | 99 | 1018.1 |
| 20260831191637 | 19 | 116 | 0.0 | 0.0 | 0.00 | 0.15 | 0.15 | 99 | 1018.1 |
| 20260831191133 | 19 | 115 | 0.0 | 0.0 | 0.00 | 0.15 | 0.15 | 99 | 1018.0 |
| 20260831190628 | 19 | 115 | 0.0 | 0.0 | 0.13 | 0.15 | 0.15 | 99 | 1018.3 |
| 20260831190126 | 19 | 116 | 0.0 | 0.0 | 0.13 | 0.15 | 0.15 | 99 | 1018.3 |
| 20260831185622 | 19 | 116 | 0.0 | 0.0 | 0.00 | 0.13 | 0.13 | 99 | 1018.5 |
| 20260831185118 | 19 | 116 | 0.0 | 0.0 | 0.18 | 0.13 | 0.13 | 99 | 1018.6 |
| 20260831184617 | 19 | 116 | 0.0 | 0.0 | 0.18 | 0.13 | 0.13 | 99 | 1018.6 |
| 20260831184113 | 19 | 115 | 0.0 | 0.0 | 0.18 | 0.13 | 0.13 | 99 | 1018.7 |
| 20260831183607 | 19 | 115 | 0.0 | 0.0 | 0.13 | 0.10 | 0.10 | 98 | 1018.6 |
| 20260831183107 | 20 | 115 | 0.0 | 0.0 | 0.13 | 0.10 | 0.10 | 98 | 1018.7 |
| 20260831182606 | 20 | 115 | 0.0 | 0.0 | 0.00 | 0.08 | 0.08 | 98 | 1018.5 |
| 20260831182102 | 20 | 115 | 0.0 | 0.0 | 0.18 | 0.08 | 0.08 | 98 | 1018.9 |
| 20260831181601 | 20 | 115 | 0.0 | 0.0 | 0.30 | 0.08 | 0.08 | 96 | 1018.9 |
| 20260831181056 | 20 | 115 | 0.0 | 0.0 | 0.30 | 0.05 | 0.05 | 96 | 1018.6 |
| 20260831180551 | 20 | 115 | 1.6 | 1.6 | 0.18 | 0.03 | 0.03 | 94 | 1018.9 |
| 20260831180047 | 20 | 115 | 0.0 | 0.0 | 0.00 | 0.00 | 0.00 | 92 | 1019.0 |
| 20260831175541 | 21 | 115 | 0.0 | 0.0 | 0.00 | 0.00 | 0.00 | 92 | 1019.0 |
| 20260831175038 | 21 | 115 | 0.0 | 0.0 | 0.00 | 0.00 | 0.00 | 90 | 1018.9 |
| 20260831174532 | 21 | 115 | 0.0 | 0.0 | 0.00 | 0.00 | 0.00 | 89 | 1018.9 |
| 20260831174026 | 21 | 115 | 0.0 | 0.0 | 0.00 | 0.00 | 0.00 | 90 | 1018.7 |
| 20260831173525 | 21 | 115 | 0.0 | 0.0 | 0.00 | 0.00 | 0.00 | 88 | 1018.9 |
| 20260831173021 | 21 | 115 | 0.0 | 0.0 | 0.00 | 0.00 | 0.00 | 88 | 1018.7 |
| 20260831172516 | 21 | 120 | 1.6 | 1.6 | 0.00 | 0.00 | 0.00 | 87 | 1018.9 |
| 20260831172011 | 22 | 153 | 0.0 | 0.0 | 0.00 | 0.00 | 0.00 | 86 | 1018.7 |
| 20260831171507 | 21 | 121 | 1.6 | 1.6 | 0.00 | 0.00 | 0.00 | 87 | 1018.7 |
| 20260831171004 | 21 | 132 | 0.0 | 1.6 | 0.00 | 0.00 | 0.00 | 87 | 1018.9 |
| 20260831170459 | 21 | 132 | 0.0 | 0.0 | 0.00 | 0.00 | 0.00 | 89 | 1018.6 |
| 20260831165956 | 21 | 132 | 0.0 | 0.0 | 0.00 | 0.00 | 0.00 | 90 | 1019.0 |
| 20260831165456 | 21 | 132 | 0.0 | 1.6 | 0.00 | 0.00 | 0.00 | 89 | 1019.1 |
| 20260831164953 | 21 | 132 | 0.0 | 0.0 | 0.00 | 0.00 | 0.00 | 90 | 1019.0 |
| 20260831164449 | 21 | 132 | 0.0 | 0.0 | 0.00 | 0.00 | 0.00 | 89 | 1018.7 |
| 20260831163944 | 21 | 134 | 0.0 | 0.0 | 0.00 | 0.00 | 0.00 | 91 | 1019.0 |
| 20260831163439 | 21 | 134 | 0.0 | 0.0 | 0.00 | 0.00 | 0.00 | 91 | 1019.1 |
| 20260831161632 | 21 | 130 | 0.0 | 0.0 | 0.00 | 0.00 | 0.00 | 85 | 1019.3 |
| 20260831161128 | 21 | 130 | 0.0 | 0.0 | 0.00 | 0.00 | 0.00 | 85 | 1019.3 |
| 20260831160626 | 21 | 130 | 0.0 | 0.0 | 0.00 | 0.00 | 0.00 | 84 | 1019.2 |
| 20260831160122 | 21 | 130 | 0.0 | 1.6 | 0.00 | 0.00 | 0.00 | 86 | 1019.1 |
| 20260831154858 | 21 | 146 | 0.0 | 0.0 | 0.00 | 0.00 | 0.00 | 87 | 1019.1 |
| 20260831154355 | 21 | 146 | 0.0 | 0.0 | 0.00 | 0.00 | 0.00 | 87 | 1019.1 |
| 20260831153852 | 21 | 131 | 0.0 | 0.0 | 0.00 | 0.00 | 0.00 | 86 | 1019.1 |
| 20260831151520 | 21 | 194 | 1.6 | 1.6 | 0.00 | 0.00 | 0.00 | 86 | 1019.2 |
| 20260831151020 | 21 | 194 | 1.6 | 1.6 | 0.00 | 0.00 | 0.00 | 86 | 1019.2 |
| 20260831150515 | 21 | 224 | 3.2 | 4.8 | 0.00 | 0.00 | 0.00 | 86 | 1019.4 |
| 20260831150011 | 21 | 131 | 1.6 | 3.2 | 0.00 | 0.00 | 0.00 | 86 | 1019.2 |
| 20260831145505 | 21 | 193 | 0.0 | 1.6 | 0.00 | 0.00 | 0.00 | 85 | 1019.3 |
| 20260831145001 | 21 | 129 | 0.0 | 1.6 | 0.00 | 0.00 | 0.00 | 85 | 1019.3 |
| 20260831144456 | 21 | 165 | 0.0 | 0.0 | 0.00 | 0.00 | 0.00 | 85 | 1019.3 |
| 20260831143952 | 20 | 164 | 0.0 | 0.0 | 0.00 | 0.00 | 0.00 | 90 | 1019.2 |